Location: Morlupo
(42.1333°N, 12.5000°E)
Time: 15:32:41
(UTC+00:00)

CENTAUR R/B - Pass Details

Date: 18 September 2020
Orbit: 755 x 1433 km, 63.4° (Epoch: 02 October)

Event Time Altitude Azimuth Distance (km) Brightness Sun altitude
Rises 17:34:36 0° 323° (NW) 4,011 6.4 -4.7°
Reaches altitude 10° 17:37:59 10° 338° (NNW) 3,163 5.6 -5.3°
Maximum altitude 17:43:51 23° 28° (NNE) 2,506 4.5 -6.4°
Drops below altitude 10° 17:50:13 10° 77° (ENE) 3,466 4.8 -7.6°
Enters shadow 17:51:21 - 82° (E) 3,748 4.9 -7.8°
